St. Johns, AZ

4:15 AM MST on October 21, 2019 (GMT -0700)
Saint Johns Industrial

Weather History for KSJN - August, 2019

Change the Weather History Date:

Sunday, August 25, 2019

  Actual Average (WUND) Record (WUND)
Temperature  
Mean Temperature 74 °F -  
Max Temperature 91 °F - - (-1)
Min Temperature 57 °F - - (-1)
Cooling Degree Days 9    
Growing Degree Days 24 (Base 50)    
Moisture  
Dew Point 46 °F    
Average Humidity 34    
Maximum Humidity 63    
Minimum Humidity 13    
Precipitation  
Precipitation 0.00 in - - ()
Sea Level Pressure  
Sea Level Pressure 29.87 in    
Wind  
Wind Speed 9 mph (West)    
Max Wind Speed 17 mph    
Max Gust Speed 25 mph    
Visibility 10 miles    
Events      
Averages and records for this station are not official NWS values.
T = Trace of Precipitation, MM = Missing Value Source: NWS Daily Summary

Daily Weather History Graph

Daily Weather History Graph

Search for Another Location

Airport or City:

Astronomy

Aug. 25, 2019 Rise Set
Actual Time 5:45 AM MST 6:53 PM MST
Civil Twilight 5:19 AM MST 7:19 PM MST
Nautical Twilight 4:48 AM MST 7:50 PM MST
Astronomical Twilight 4:16 AM MST 8:22 PM MST
Moon 12:30 AM MST (8/25) 3:08 PM MST (8/25)
Length of Visible Light 13h 59m
Length of Day
13h 07m
Waning Crescent, 28% of the Moon is Illuminated
Aug 25
Waning Crescent
Aug 30
New
Sep 5
First Quarter
Sep 13
Full
Sep 21
Last Quarter

Hourly Weather History & Observations

Time (MST) Temp. Dew Point Humidity Pressure Visibility Wind Dir Wind Speed Gust Speed Precip Events Conditions
12:54 AM 70.0 °F 54.0 °F 57% 29.88 in 10.0 mi SW 3.5 mph - N/A   Clear
1:54 AM 70.0 °F 55.9 °F 61% 29.87 in 10.0 mi WSW 9.2 mph - N/A   Clear
2:54 AM 69.1 °F 55.9 °F 63% 29.86 in 10.0 mi WSW 10.4 mph - N/A   Clear
3:54 AM 69.1 °F 55.0 °F 61% 29.87 in 10.0 mi WSW 12.7 mph - N/A   Clear
4:54 AM 70.0 °F 53.1 °F 55% 29.88 in 10.0 mi WSW 11.5 mph - N/A   Clear
5:54 AM 68.0 °F 54.0 °F 61% 29.91 in 10.0 mi SW 8.1 mph - N/A   Clear
6:54 AM 70.0 °F 55.0 °F 59% 29.94 in 10.0 mi SSW 6.9 mph - N/A   Clear
7:54 AM 75.9 °F 53.1 °F 45% 29.96 in 10.0 mi West 9.2 mph - N/A   Clear
8:54 AM 79.0 °F 46.0 °F 31% 29.95 in 10.0 mi WNW 8.1 mph - N/A   Clear
9:54 AM 81.0 °F 46.9 °F 30% 29.94 in 10.0 mi West 9.2 mph - N/A   Clear
10:54 AM 84.0 °F 45.0 °F 25% 29.91 in 10.0 mi NW 11.5 mph - N/A   Clear
11:54 AM 88.0 °F 42.1 °F 20% 29.88 in 10.0 mi NW 11.5 mph 23.0 mph N/A   Clear
12:54 PM 89.1 °F 39.0 °F 17% 29.86 in 10.0 mi WNW 12.7 mph - N/A   Clear
1:54 PM 91.9 °F 39.0 °F 16% 29.84 in 10.0 mi WNW 10.4 mph 23.0 mph N/A   Clear
2:54 PM 93.0 °F 37.9 °F 15% 29.81 in 10.0 mi WNW 12.7 mph 25.3 mph N/A   Clear
3:54 PM 93.0 °F 36.0 °F 13% 29.79 in 10.0 mi NW 17.3 mph 23.0 mph N/A   Clear
4:54 PM 91.9 °F 37.0 °F 15% 29.77 in 10.0 mi NW 9.2 mph 18.4 mph N/A   Clear
5:54 PM 91.0 °F 37.0 °F 15% 29.76 in 10.0 mi NW 10.4 mph - N/A   Clear
6:54 PM 86.0 °F 36.0 °F 17% 29.78 in 10.0 mi NNW 6.9 mph - N/A   Clear
7:54 PM 81.0 °F 37.0 °F 21% 29.79 in 10.0 mi SW 8.1 mph - N/A   Scattered Clouds
8:54 PM 81.0 °F 52.0 °F 36% 29.81 in 10.0 mi WSW 11.5 mph - N/A   Partly Cloudy
9:54 PM 79.0 °F 52.0 °F 39% 29.81 in 10.0 mi WSW 13.8 mph - N/A   Clear
10:54 PM 75.9 °F 54.0 °F 46% 29.81 in 10.0 mi WSW 11.5 mph - N/A   Clear
11:54 PM 73.9 °F 54.0 °F 50% 29.80 in 10.0 mi WSW 10.4 mph - N/A   Clear